Tracking 19817 objects as of 18-Aug-2019
HD Live streaming from Space Station
objects crossing your sky now

SL-12 R/B(2)

Track SL-12 R/B(2) now!


NORAD ID: 16870
Int'l Code: 1986-007F
Perigee: 36,369.2 km
Apogee: 36,633.6 km
Inclination: 14.8 °
Period: 1,472.4 minutes
Semi major axis: 42872 km
RCS: 2.3779 m2 (large)
Launch date: January 17, 1986
Source: Commonwealth of Independent States (former USSR) (CIS)
Launch site: TYURATAM MISSILE AND SPACE COMPLEX (TTMTR)

Note: This is a ROCKET BODY
aabbcc
Your satellite tracking list
Your tracking list is empty




NASA's NSSDC Master Catalog

Two Line Element Set (TLE):
1 16870U 86007F   19229.10566104 -.00000183  00000-0  00000+0 0  9991
2 16870  14.7731 342.3760 0030837 108.7736 256.3478  0.97799529118210
Source of the keplerian elements: AFSPC